AQUA

Last updated on Mon Nov 03 2025 00:02:16 GMT+0000 (Coordinated Universal Time)

1 27424U 02022A 25306.51793714 .00001396 00000+0 29037-3 0 9990 2 27424 98.3974 266.7606 0001234 49.8659 63.5797 14.61660038250150
UTC large
Height (km)
Speed (km/s)
/
Latitude / Longitude
Inclination (degrees)
Orbital Period (minutes)
Azimuth
Elevation
Range (km)
Doppler Factor

Next 0 passes for location: London (51.5072 / 0.1276)

Sorry there are no passes over London.